OpenBCM V1.08-3-g9b42 (Linux)

Packet Radio Mailbox

OK0NBR

[Sao_Jose_dos_Campo]

 Login: GUEST





  
I0OJJ  > KEPS     02.11.25 22:03l 316 Lines 15005 Bytes #183 (0) @ AMSAT
BID : ORB25307.1
Read: GUEST
Subj: 2Line Orbital Elements 25307.AMSAT
Path: OK0NBR<IW0QNL<HB9ON<DK0WUE<PD0LPM<PI8ZTM<IR0AAB<I0OJJ
Sent: 251103/0021z @:I0OJJ.ITA.EU [Rome] obcm1.08-11-2-gbfe9
From: I0OJJ @ I0OJJ.ITA.EU (Gustavo)
To:   KEPS @ AMSAT
X-Info: This message was generated automatically


QST de W1STR

AMSAT Orbital Elements for Amateur Satellites in TLE Format
From Orbital Analysis Office
New England Sci-Tech STEM Education Center
Natick MA November 03, 2025
To all radio amateurs


These element sets describe the orbits of various satellites 
in use by the amateur radio community. For details see:
www.amsat.org/keplerian-elements-formats/

A daily update of element sets is available at:
www.amsat.org/tle/daily-bulletin.txt
or without bulletin text:
www.amsat.org/tle/dailytle.txt


AO-07
1 07530U 74089B   25306.26639884 -.00000015  00000-0  19935-3 0  9992
2 07530 101.9980 312.1051 0012067 203.2667 167.8423 12.53693043332083
UO-11
1 14781U 84021B   25306.50113257  .00001906  00000-0  20365-3 0  9991
2 14781  97.7745 270.1743 0006812 202.9394 157.1520 14.89932807223360
AO-27
1 22825U 93061C   25306.16097003  .00000158  00000-0  77310-4 0  9996
2 22825  98.7202   8.3213 0009198  51.7607 308.4402 14.30853719674536
FO-29
1 24278U 96046B   25306.18279401 -.00000017  00000-0  20680-4 0  9995
2 24278  98.5500 180.7533 0349414 325.4136  32.4713 13.53258792442463
NOAA-15
1 25338U 98030A   25306.51359403  .00000194  00000-0  97107-4 0  9999
2 25338  98.5264 328.0788 0009184 294.4982  65.5241 14.27045666428966
GO-32
1 25397U 98043D   25306.45583669  .00000131  00000-0  76908-4 0  9991
2 25397  98.9885 288.7448 0002021 122.3432 237.7942 14.24359587419059
ISS
1 25544U 98067A   25306.42331346  .00010070  00000-0  18610-3 0  9999
2 25544  51.6344 342.0717 0004969   8.9436 351.1640 15.49700017536601
NO-44
1 26931U 01043C   25306.50193307  .00000253  00000-0  12570-3 0  9991
2 26931  67.0488 110.5318 0007153 272.1339  87.8944 14.31818430257993
SO-50
1 27607U 02058C   25306.45989558  .00001699  00000-0  22249-3 0  9993
2 27607  64.5510 110.0681 0069679 304.0578  55.3925 14.82158626230845
CO-55
1 27844U 03031E   25306.47331625  .00000451  00000-0  21468-3 0  9993
2 27844  98.6780 312.8934 0010571 120.7133 239.5089 14.24126940159404
CO-57
1 27848U 03031J   25306.49066354  .00000385  00000-0  18856-3 0  9996
2 27848  98.6808 312.8042 0010232 136.8865 223.3116 14.23443015159128
RS-22
1 27939U 03042A   25306.56660145  .00001631  00000-0  26337-3 0  9993
2 27939  98.3371 119.7036 0010258 267.4366 185.0400 14.72791206182187
CO-58
1 28895U 05043F   25306.39794900  .00002303  00000-0  37772-3 0  9998
2 28895  98.2696  92.8070 0014015 200.9386 159.1248 14.71644563 68385
CO-65
1 32785U 08021C   25306.52533402  .00006525  00000-0  44777-3 0  9996
2 32785  97.8040 279.0766 0011821  80.0505 280.2055 15.06294076951033
CO-66
1 32791U 08021J   25306.46545773  .00016363  00000-0  69156-3 0  9999
2 32791  97.7417 290.2906 0005427  52.2169 307.9558 15.23306459952663
RS-30
1 32953U 08025A   25306.55176683  .00000046  00000-0  25606-3 0  9996
2 32953  82.4997 136.4212 0019962  86.4396 273.8966 12.43170054791538
NOAA-19
1 33591U 09005A   25306.45737039  .00000057  00000-0  54236-4 0  9995
2 33591  98.9818  11.8693 0012983 314.5498  45.4613 14.13422862862452
SRMSAT
1 37841U 11058D   25306.43530226  .00000482  00000-0  11794-3 0  9998
2 37841  19.9734 351.8802 0011566 228.8190 159.2287 14.11490180725742
ZACUBE-1
1 39417U 13066B   25306.40028595  .00005819  00000-0  48391-3 0  9990
2 39417  97.7972 262.9198 0041380 285.5811  74.0845 14.98429556646737
Delfi-N3xt
1 39428U 13066N   25306.35106306  .00007407  00000-0  71285-3 0  9996
2 39428  97.8304 222.5264 0078738 239.3211 120.0231 14.90935048640772
GOMX-1
1 39430U 13066Q   25306.56307183  .00002170  00000-0  33665-3 0  9990
2 39430  97.6638 156.2012 0132405  84.8929 276.7374 14.68318276636649
LO-74
1 39440U 13066AA  25306.42330865  .00004761  00000-0  46634-3 0  9997
2 39440  97.8638 250.1810 0062220  59.2238 301.5085 14.91300176643165
AO-73
1 39444U 13066AE  25306.44327951  .00009378  00000-0  65487-3 0  9991
2 39444  97.8010 269.2694 0037586 253.3191 106.3907 15.04994615645502
DTUSAT-2
1 40030U 14033W   25306.47925956  .00008725  00000-0  52965-3 0  9993
2 40030  98.0720 285.7169 0006598 295.5122  64.5423 15.10760767618400
EO-80
1 40032U 14033Y   25306.49171455  .00008757  00000-0  53066-3 0  9992
2 40032  98.0599 285.1813 0006433 216.0651 144.0144 15.10824919618380
LILACSAT-2
1 40908U 15049K   25306.55164841  .00016105  00000-0  36617-3 0  9999
2 40908  97.4970 330.7367 0008388   9.1856 350.9543 15.43046494560701
IO-86
1 40931U 15052B   25151.18580175  .00001241  00000-0  78118-4 0  9996
2 40931   6.0006  24.0987 0012733 338.8432  21.1169 14.78805930523159
Horyu-4
1 41340U 16012D   25306.45642874  .00041081  00000-0  80803-3 0  9994
2 41340  30.9942 225.5896 0004010 183.8761 176.1857 15.46005287535306
Lapan A3
1 41603U 16040E   25306.50731652  .00004350  00000-0  14701-3 0  9998
2 41603  97.1427 305.5415 0012724 105.0447 255.2204 15.31082876520105
CAS-2T
1 41847U 16066G   25306.43622549  .00001677  00000-0  24343-3 0  9994
2 41847  98.4083  19.5707 0345495  97.0525 267.0083 14.43982442472061
TechnoSat
1 42829U 17042E   25306.45506524  .00004369  00000-0  32815-3 0  9990
2 42829  97.4044 108.4159 0019593 144.2304 216.0239 15.02942908452620
AO-91
1 43017U 17073E   25306.17441192  .00011012  00000-0  53005-3 0  9999
2 43017  97.5002 173.3199 0165674  30.0759 330.9858 15.07559440431123
S-Net D
1 43186U 18014G   25306.30518780  .00005678  00000-0  31947-3 0  9997
2 43186  97.5479 207.7420 0010860  83.5958 276.6510 15.13600989424403
S-Net B
1 43187U 18014H   25306.24649735  .00005895  00000-0  33170-3 0  9997
2 43187  97.5488 207.6624 0011573  79.9104 280.3432 15.13577712424393
S-Net A
1 43188U 18014J   25306.30505791  .00005771  00000-0  32454-3 0  9995
2 43188  97.5492 207.8908 0011422  80.3985 279.8536 15.13606572424409
S-Net C
1 43189U 18014K   25306.24932174  .00005977  00000-0  33620-3 0  9992
2 43189  97.5512 207.8741 0012899  74.2641 286.0012 15.13571261422940
Ten-Koh
1 43677U 18084G   25306.46336072  .00003136  00000-0  24795-3 0  9998
2 43677  98.0676 124.4868 0009355 140.6070 219.5835 15.01407333382124
PO-101
1 43678U 18084H   25306.54172058  .00002638  00000-0  22206-3 0  9991
2 43678  98.1094 128.3872 0007949 146.0917 214.0815 14.99151583382245
QO-100
1 43700U 18090A   25306.25780050  .00000000  00000-0  00000-0 0  9995
2 43700   0.0206 253.7219 0002446   7.7991 258.8395  1.00269675 25409
MinXSS-2
1 43758U 18099A   25306.15792839  .00023572  00000-0  76923-3 0  9993
2 43758  97.4858  13.0470 0010081   8.6695 351.4719 15.31731728379208
AO-95
1 43770U 18099N   25306.14103112  .00011563  00000-0  53096-3 0  9999
2 43770  97.4742   2.7535 0011325  69.8720 290.3733 15.20502390378644
SNUSat 2
1 43782U 18099AA  25306.37590823  .00009437  00000-0  47716-3 0  9995
2 43782  97.4425 358.4922 0011576  16.2483 343.9119 15.17204484378581
SnugLite
1 43784U 18099AC  25306.13819291  .00011777  00000-0  53576-3 0  9995
2 43784  97.4243 358.1714 0003686  34.7881 325.3595 15.20868023378735
ITASat 1
1 43786U 18099AE  25306.02863755  .00008809  00000-0  47167-3 0  9990
2 43786  97.4398 357.2023 0015045  66.4264 293.8547 15.15159790378464
EAGLET 1
1 43790U 18099AJ  25306.37013260  .00005498  00000-0  33673-3 0  9999
2 43790  97.4588 356.9493 0012789  53.2606 306.9796 15.10519793378069
ESEO
1 43792U 18099AL  25306.34684829  .00002663  00000-0  20065-3 0  9995
2 43792  97.4285 348.1722 0012882  30.6289 329.5687 15.03237059377718
JO-97
1 43803U 18099AX  25306.42095522  .00015357  00000-0  61681-3 0  9996
2 43803  97.4492   4.4096 0006571   7.8132 352.3207 15.25024835378968
Suomi 100
1 43804U 18099AY  25306.10583302  .00013289  00000-0  58648-3 0  9991
2 43804  97.4556   2.9146 0011400   7.8764 352.2649 15.21827998378806
ISAT
1 43879U 18111D   25306.31601799  .00036657  00000-0  98284-3 0  9996
2 43879  97.5881 224.5283 0010278  55.2933 304.9278 15.37840440376029
UWE-4
1 43880U 18111E   25306.23001933  .00023381  00000-0  76315-3 0  9994
2 43880  97.5831 221.7229 0013338  63.0160 297.2442 15.31691845375870
Sparrow
1 43881U 18111F   25306.02957003  .00038965  00000-0  98363-3 0  9991
2 43881  97.6060 227.7553 0009521  81.9248 278.3077 15.39687510376098
Prox-1
1 44339U 19036A   25305.97137224  .00014485  00000-0  16803-2 0  9994
2 44339  23.9957 184.4597 0007115 296.6946  63.2823 14.83657885339604
Taurus 1
1 44530U 19059C   25306.50673172  .00008190  00000-0  14311-2 0  9997
2 44530  98.6211  93.1778 0008748 299.3986  60.6344 14.68162703325330
Duchifat 3
1 44854U 19089C   25306.55804956  .00203721  00000-0  14411-2 0  9998
2 44854  36.9309 134.9271 0009165 345.1489  14.9005 15.72394377325758
TO-108
1 44881U 19093C   25306.50181897  .00001353  00000-0  16087-3 0  9999
2 44881  97.7801  19.0278 0015044 110.6185 249.6646 14.85959988317747
FloripaSat 1
1 44885U 19093G   25306.50876231  .00007123  00000-0  56985-3 0  9998
2 44885  97.8078  34.5291 0011765  95.9361 264.3204 15.00453532318615
RS-44
1 44909U 19096E   25306.43851295  .00000039  00000-0  11927-3 0  9999
2 44909  82.5180 130.3926 0216776 314.7356  43.6274 12.79745050273349
SALSAT
1 46495U 20068K   25306.46224034  .00009296  00000-0  37143-3 0  9992
2 46495  97.8758 291.5991 0011685  26.1590 334.0235 15.25308364280742
CSS (TIANHE-1)
1 48274U 21035A   25306.17586037  .00031797  00000-0  38131-3 0  9995
2 48274  41.4666 263.0710 0006682 308.7013  51.3228 15.60215133257694
TUBIN
1 48900U 21059X   25306.50514543  .00169216  00000-0  80113-3 0  9992
2 48900  97.6710 129.4922 0001524  36.2408 323.8963 15.82534762242912
CUTE
1 49263U 21088D   25306.21901753  .00028935  00000-0  43076-3 0  9997
2 49263  97.4390  27.3540 0006596  67.7761 292.4192 15.55068484226992
